Location: ??
(31.9467°N, 34.8903°E)
Time: 02:13:16
(UTC+00:00)

Milstar 3 - Pass Details

Date: 29 October 2020
Orbit: 1101 x 5144 km, 28.2° (Epoch: 25 September)

Event Time Altitude Azimuth Distance (km) Brightness Sun altitude
Rises 16:23:20 0° 268° (W) 4,335 7.5 -19.7°
Reaches altitude 10° 16:26:24 10° 265° (W) 3,144 6.4 -20.3°
Maximum altitude 16:33:18 65° 184° (S) 1,195 2.9 -21.8°
Enters shadow 16:36:12 35° 115° (ESE) 1,728 3.3 -22.4°
